Location: Bierbaum
(46.8333°N, 15.7833°E)
Time: 15:13:13
(UTC+00:00)

Daily predictions for brighter satellites

Satellite Brightness Start Highest point End
(mag) Time Altitude Azimuth Time Altitude Azimuth Time Altitude Azimuth
Cosmos 1844 Rocket 3.0 19:25:07 10° NNW 19:30:38 56° ENE 19:36:05 10° SE
USA 245 3.8 19:31:27 10° SE 19:34:35 42° ENE 19:38:33 10° N
Meteor 2-10 Rocket 3.5 19:30:37 10° N 19:35:45 81° E 19:41:01 10° SSE
H-2A ROCKET BODY 4.5 19:32:29 10° SSW 19:36:35 18° SSE 19:45:34 10° SE
Cosmos 1758 Rocket 4.0 19:33:01 10° SSE 19:37:19 46° E 19:41:38 10° NNE
Cosmos 1400 Rocket 3.5 19:34:22 10° N 19:38:08 39° ENE 19:41:51 10° SE
Cosmos 1626 Rocket 4.1 19:34:31 10° SSW 19:38:57 66° W 19:43:25 10° N
SPOT 5 4.1 19:35:19 10° ESE 19:39:35 29° ENE 19:43:42 10° N
Lacrosse 5 rocket 3.7 19:38:00 10° WNW 19:41:41 26° NNW 19:45:12 10° NE
BREEZE-M DEB (TANK) 4.5 19:37:40 10° SSW 19:42:19 20° SSE 19:44:37 10° ESE
Spot 2 Rocket 3.7 19:37:20 10° SSE 19:42:20 63° ENE 19:47:24 10° N
ATLAS 5 CENTAUR R/B 4.1 19:41:24 10° W 19:44:13 19° NW 19:46:01 10° N
Cosmos 1745 Rocket 4.0 19:40:57 10° S 19:47:08 82° E 19:53:26 10° N
Landsat 7 4.0 19:43:25 10° SSE 19:48:07 64° ENE 19:52:50 10° N
Cosmos 1125 Rocket 4.5 19:46:18 10° NNW 19:51:18 45° WSW 19:56:17 10° S
USA 267 4.1 19:49:26 10° E 19:55:40 48° NNE 20:01:55 10° NW
Meteor 1-21 Rocket 4.5 19:50:22 10° SSW 19:56:16 83° W 20:02:15 10° N
SPOT 1/Viking Rocket 3.7 19:51:25 10° SSE 19:56:30 64° ENE 20:01:37 10° N
Cosmos 1953 Rocket 4.0 19:56:22 10° SSE 20:00:26 43° E 20:04:32 10° NNE
Alouette 2 Rocket 3.7 19:57:31 10° N 20:01:18 67° ENE 20:06:10 11° SSE
Cosmos 2322 Rocket 3.2 19:56:40 10° SW 20:02:07 51° WNW 20:07:38 10° NNE
NOSS 7 (D) 4.4 20:01:31 10° SW 20:04:18 59° NW 20:06:58 10° NNE
Cosmos 2237 4.4 19:59:01 10° SSW 20:04:45 82° WNW 20:10:32 10° NNE
Cosmos 1328 3.7 20:02:49 10° S 20:06:47 75° E 20:10:45 10° NNE
Cosmos 2084 4.5 20:03:18 10° NNW 20:07:33 40° NE 20:11:33 11° ESE
SAR-Lupe-2 3.7 20:06:32 10° NNE 20:10:04 54° E 20:13:36 10° S
Cosmos 1455 3.1 20:08:40 10° NNW 20:12:22 47° W 20:16:05 10° SSW
Cosmos 1825 Rocket 3.6 20:11:40 10° S 20:16:07 87° W 20:20:36 10° N
ATLAS CENTAUR R/B 1.8 20:16:03 10° NNW 20:19:36 43° NE 20:22:16 16° ESE
Cosmos 1703 3.6 20:16:53 10° SSW 20:20:43 66° W 20:24:36 10° N
COSMOS 2428 3.0 20:16:33 10° S 20:21:54 45° ESE 20:27:16 10° NE
Cosmos 1844 3.9 20:19:00 10° NNW 20:24:46 72° WSW 20:29:32 15° SSE
SL-24 R/B - RUBIN 2 4.4 20:18:51 10° SSW 20:24:53 78° ESE 20:31:31 10° NE
Cosmos 2322 3.7 20:20:03 10° SSW 20:25:46 78° ESE 20:31:31 10° NNE
Meteor 1-27 4.4 20:25:36 10° N 20:31:19 68° ENE 20:35:45 18° SSE
Cosmos 1869 4.4 20:28:04 10° N 20:31:39 31° ENE 20:33:50 19° SE
Cosmos 1709 Rocket 4.1 20:25:56 10° S 20:32:13 83° W 20:38:38 10° N
NOSS 3-3 (A) 4.0 20:28:42 10° SSW 20:34:23 57° ESE 20:40:46 10° NE
NOSS 3-3 (C) 4.0 20:28:49 10° SSW 20:34:30 57° ESE 20:40:53 10° NE
Terra 2.0 20:31:40 18° SSE 20:35:05 64° ENE 20:39:49 10° N
Cosmos 2237 Rocket 3.4 20:33:12 18° SE 20:35:44 24° ESE 20:40:10 10° NE
CARTOSAT-1 3.6 20:32:57 17° S 20:36:16 81° WSW 20:40:36 10° NNW
Atlas Centaur 2 3.9 20:32:43 10° SW 20:36:55 18° S 20:38:47 17° SSE
Cosmos 2333 4.2 20:31:55 10° SSW 20:37:34 89° WNW 20:43:19 10° NNE
Cosmos 2219 Rocket 2.1 20:32:24 10° SSW 20:37:55 66° ESE 20:43:30 10° NNE
Cosmos 2360 Rocket 3.2 20:34:34 10° SW 20:40:01 49° WNW 20:45:32 10° NNE
Cosmos 1538 Rocket 4.0 20:35:25 10° S 20:40:43 66° ESE 20:46:01 10° NNE
DELTA 2 R/B (1) 4.5 20:40:54 10° SSW 20:45:25 26° SSE 20:49:12 13° ESE
Cosmos 2184 Rocket 4.3 20:42:26 18° SSE 20:46:53 51° E 20:52:58 10° NNE
Cosmos 2333 Rocket 2.2 20:42:02 10° SSW 20:47:44 83° ESE 20:53:30 10° NNE
Resurs 01 Rocket 4.2 20:49:27 10° WSW 20:51:45 14° W 20:54:03 10° WNW
Cosmos 1315 Rocket 2.8 20:47:40 10° NNW 20:51:47 85° WSW 20:54:13 24° S
ATLAS 2AS CENTAUR R/B 3.6 20:45:10 10° NW 20:52:35 48° NE 20:59:01 12° ESE
Cosmos 2221 2.6 20:55:53 10° N 21:00:16 68° E 21:02:29 28° SSE
ERS-1 Rocket 3.6 20:56:51 16° S 21:00:45 50° W 21:05:41 10° NNW
GEOS 3 Rocket 4.5 20:57:24 10° NNE 21:02:40 55° NW 21:07:54 10° WSW
USA 215 3.2 20:59:15 10° NE 21:05:52 85° SE 21:12:25 10° SW
Cosmos 1892 3.1 21:07:02 33° SE 21:08:13 45° E 21:11:52 10° NNE
Cosmos 2278 Rocket 2.3 21:04:06 10° NNW 21:09:48 73° ENE 21:13:09 25° SE
ATLAS 5 CENTAUR R/B 3.4 21:08:37 10° WSW 21:12:30 33° NW 21:16:53 10° NNE
Cosmos 1844 Rocket 4.3 21:09:43 10° NW 21:14:07 24° WSW 21:18:16 11° SSW
Cosmos 158 Rocket 4.4 21:13:10 28° SSE 21:14:58 39° ESE 21:19:31 10° NE
Gblst 52 Del rocket 4.3 21:10:26 10° WNW 21:16:12 78° SSW 21:20:33 21° SE
Cosmos 1943 Rocket 4.4 21:13:33 10° N 21:17:20 18° NE 21:21:05 10° E
SPOT 5 3.9 21:13:56 16° SSW 21:17:32 40° W 21:22:05 10° NNW
SL-16 R/B 3.6 21:18:55 19° ESE 21:20:07 20° E 21:24:06 10° NE
Lacrosse 5 rocket 4.0 21:18:51 10° NW 21:21:55 20° N 21:24:51 10° NE
Spot 4 4.4 21:20:00 26° SE 21:22:18 47° ENE 21:26:54 10° N
Cosmos 2056 Rocket 4.3 21:19:24 10° N 21:24:35 43° ENE 21:27:39 22° ESE
Nadezhda 3 Rocket 4.1 21:19:13 10° N 21:25:36 70° E 21:29:11 27° SSE
Cosmos 2154 Rocket 4.0 21:23:04 26° S 21:26:41 67° E 21:32:51 10° NNE
Cosmos 2058 2.8 21:25:00 34° S 21:26:42 75° E 21:30:51 10° NNE
BREEZE M DEB (TANK) 4.3 21:27:22 10° WSW 21:27:39 12° WSW 21:27:39 12° WSW
Cosmos 1408 2.9 21:29:06 42° SE 21:29:43 47° E 21:33:10 10° NNE
Meteor 2-17 Rocket 4.4 21:27:25 22° S 21:31:29 89° W 21:37:34 10° N
In-Cosmos 22 Rocket 4.0 21:29:55 25° S 21:33:06 90° W 21:38:27 10° N
Cosmos 2074 Rocket 4.2 21:29:16 18° SSW 21:34:03 72° W 21:40:17 10° N
TSX-5 3.7 21:32:52 10° NW 21:36:23 71° WSW 21:37:36 42° S
Cosmos 1076 Rocket 3.4 21:36:08 35° S 21:37:54 87° E 21:42:12 10° N
USA 267 3.2 21:34:05 23° SE 21:38:27 80° SW 21:45:03 10° NW
Cosmos 1680 Rocket 3.5 21:35:42 28° S 21:38:30 71° ESE 21:43:50 10° NNE
Cosmos 2151 3.4 21:47:18 39° SE 21:48:21 49° E 21:52:30 10° NNE
COSMOS 2455 4.3 21:44:21 10° NNW 21:49:44 32° NE 21:55:05 10° ESE
EO 1 Delta rocket 4.3 21:44:46 10° NNE 21:49:51 72° E 21:52:50 31° S
Cosmos 923 Rocket 4.3 21:52:19 19° SW 21:56:05 66° WNW 22:01:23 10° NNE
ATLAS CENTAUR R/B 2.9 21:55:35 10° WNW 21:58:11 18° WSW 21:58:26 18° WSW
Cosmos 1825 2.1 21:58:08 56° SSE 21:58:49 73° E 22:02:36 10° NNE
ALOS 2 3.0 21:58:03 36° SE 21:59:31 53° ENE 22:03:48 10° N
Cosmos 1340 4.1 21:59:38 23° E 21:59:46 23° E 22:02:48 10° NE
Cosmos 1980 3.8 21:56:55 19° SW 22:01:01 75° WNW 22:06:42 10° NNE
Cosmos 1933 4.3 21:57:41 10° N 22:01:24 35° ENE 22:02:24 30° ESE
Cosmos 1151 Rocket 3.8 21:57:51 10° N 22:01:58 40° ENE 22:03:13 32° ESE
Cosmos 2369 Rocket 4.0 21:57:29 10° N 22:01:58 24° NE 22:06:26 10° E
Cosmos 44 3.4 22:05:15 41° SE 22:05:30 41° ESE 22:09:39 10° NE
COSMOS 2428 4.2 22:01:11 10° WSW 22:06:18 34° NW 22:11:28 10° NNE
Cosmos 371 Rocket 4.0 22:04:58 10° NNW 22:09:40 46° ENE 22:11:47 28° ESE
GP-B 3.4 22:05:54 10° N 22:10:17 54° E 22:11:23 42° SE
Terra 4.0 22:10:34 11° SW 22:13:16 17° W 22:16:17 10° NW
NOSS 0 Rocket 4.5 22:07:31 10° SW 22:13:33 57° NW 22:19:39 10° NNE
Cosmos 1624 Rocket 4.0 22:09:52 10° NNW 22:15:06 76° WSW 22:16:57 41° S
Cosmos 962 Rocket 4.5 22:12:15 31° S 22:15:31 87° W 22:21:56 10° N
NOSS 3-4 (A) 3.9 22:08:55 10° NW 22:15:52 69° SW 22:19:47 31° SSE
NOSS 3-4 (C) 3.9 22:09:01 10° NW 22:15:59 70° SW 22:19:55 31° SSE
SL-4 R/B 3.3 22:19:54 16° NNE 22:19:54 16° NNE 22:20:38 10° NNE
Cosmos 2237 Rocket 2.7 22:14:58 17° SW 22:19:21 60° WNW 22:25:01 10° NNE
Nimbus 7 Rocket 4.3 22:13:46 10° NNE 22:19:44 77° ESE 22:22:22 35° S
Genesis I 3.5 22:18:36 33° WSW 22:20:11 66° NW 22:24:05 10° NNE
IRIDIUM 106 4.5 22:19:31 39° SSE 22:21:19 63° E 22:26:30 10° N
CREW DRAGON DEMO-1 DEB 4.0 22:22:53 35° ENE 22:22:53 35° ENE 22:24:50 10° ENE
Cosmos 2344 3.5 22:16:02 17° SW 22:22:10 85° SE 22:30:17 10° NE
Cosmos 2219 Rocket 4.3 22:17:50 10° WSW 22:22:22 25° NW 22:26:58 10° N
Cosmos 1782 4.3 22:19:10 10° NNE 22:22:30 26° ENE 22:23:34 23° E
Cosmos 1346 Rocket 3.8 22:28:04 30° ESE 22:28:22 31° E 22:31:50 10° NNE
Thor Agena Rocket 4.2 22:25:31 10° N 22:30:26 49° WNW 22:33:18 23° SW
DELTA 2 R/B (1) 4.1 22:25:57 10° WSW 22:36:22 10° ESE 22:30:03 36° SSW
Cosmos 1515 Rocket 3.8 22:37:52 10° N 22:42:12 60° E 22:43:15 45° SE
BREEZE-M DEB (TANK) 2.8 22:39:28 10° WNW 22:41:21 29° W 22:41:21 29° W
Dummy Sat-02 4.5 22:39:25 10° N 22:43:11 87° E 22:43:34 71° S
ATLAS 2AS CENTAUR R/B 3.1 22:36:29 10° NW 22:43:40 51° WSW 22:46:25 34° S
Cosmos 1766 Rocket 3.7 22:44:24 44° SW 22:45:36 64° W 22:50:00 10° N
Okean 3 Rocket 4.1 22:47:03 37° SW 22:48:28 52° WNW 22:52:49 10° N
USA 215 4.3 22:42:23 10° NE 22:48:35 46° NNW 22:54:45 10° W
Gbstr 26 Del rocket 3.3 22:49:28 41° ESE 22:49:28 41° ESE 22:52:44 10° ENE
Cosmos 1328 Rocket 3.5 22:45:16 10° NNW 22:49:34 68° W 22:50:25 53° SSW
Aureole 2 Rocket 3.5 22:47:10 10° NW 22:48:59 29° WNW 22:48:59 29° WNW
Cosmos 1606 3.2 22:48:08 10° NNW 22:51:52 45° W 22:52:19 43° WSW
Cosmos 2278 Rocket 3.9 22:49:24 10° WNW 22:53:14 19° W 22:54:59 17° WSW
Cosmos 2218 Rocket 4.0 22:50:54 34° SSW 22:53:50 80° W 23:00:12 10° N
Cosmos 864 Rocket 4.5 22:52:04 36° SSW 22:54:50 84° W 23:01:11 10° N
Cosmos 2297 3.8 22:49:38 10° NNW 22:55:19 61° WSW 22:57:11 40° S
Cosmos 304 Rocket 4.1 22:51:22 10° NNW 22:56:09 59° ENE 22:58:04 34° SE
Cosmos 1943 4.4 22:56:06 24° SE 22:57:34 27° ESE 23:02:15 10° NE
Cosmos 2228 Rocket 3.7 22:53:23 10° N 22:57:52 49° ENE 22:59:19 36° SE
Cosmos 1420 Rocket 4.1 22:53:50 10° NNW 22:59:03 61° WSW 23:00:36 43° SSW
Cosmos 2366 rocket 4.1 22:56:35 34° SSW 22:59:32 76° W 23:05:55 10° N
Cosmos 1633 2.5 23:01:11 67° ESE 23:01:20 68° E 23:04:56 10° NNE
Lacrosse 5 rocket 2.7 22:58:18 10° NW 23:02:01 35° NNE 23:05:32 10° E
Cosmos 1943 Rocket 2.2 22:56:21 10° NNW 23:02:03 78° ENE 23:04:40 33° SE
SL-16 R/B 2.4 23:00:46 30° SW 23:03:38 70° WNW 23:09:20 10° NNE
Landsat 4 3.7 22:59:52 10° NNE 23:03:39 66° ESE 23:03:59 62° SE
Cosmos 1821 Rocket 4.3 23:05:52 33° SSE 23:08:27 55° E 23:14:23 10° NNE
YAOGAN 11 4.0 23:09:09 54° S 23:10:06 76° WSW 23:14:32 10° NNW
BREEZE-M DEB (TANK) 4.5 23:00:46 10° SW 23:12:22 43° SSE 23:16:27 10° E
Cosmos 1743 Rocket 3.4 23:12:36 55° S 23:13:29 79° E 23:17:50 10° NNE
Sich 1 4.3 23:15:28 25° ESE 23:16:34 29° E 23:20:18 10° NNE
Cosmos 332 Rocket 3.9 23:15:41 10° NNW 23:20:24 58° WSW 23:21:28 46° SSW
Cosmos 1048 Rocket 4.0 23:19:32 43° S 23:21:18 77° ESE 23:26:35 10° NNE
USA 267 4.3 23:21:24 24° SW 23:22:06 24° SW 23:27:17 10° WNW
Meteor 2-3 Rocket 4.1 23:21:02 33° SW 23:23:28 58° WNW 23:29:07 10° N
Helios 1A 3.6 23:24:53 39° WSW 23:25:24 41° W 23:29:22 10° NNW
Meteor 1-29 3.8 23:25:56 10° NNE 23:29:06 36° E 23:29:10 36° ESE
Cosmos 405 3.2 23:25:37 10° NNW 23:29:07 56° W 23:29:07 56° W
Meteor 1-10 Rocket 4.3 23:27:40 10° N 23:33:16 72° ENE 23:35:50 33° SSE
Cosmos 1452 Rocket 4.0 23:28:45 10° NNW 23:33:47 46° WSW 23:35:06 38° SW
Cosmos 1340 4.2 23:34:23 24° W 23:35:17 26° WNW 23:38:31 10° NNW
CZ-4C R/B 3.1 23:28:19 10° NW 23:35:27 74° NE 23:43:42 10° SE
PSLV R/B 3.4 23:31:19 10° NNE 23:35:33 87° WNW 23:36:34 52° SSW
Meteor 2-6 Rocket 4.1 23:30:11 10° N 23:35:42 88° E 23:37:53 38° SSE
Cosmos 389 Rocket 4.2 23:32:49 10° NNE 23:35:52 26° ENE 23:37:05 21° ESE
COSMOS 2455 2.9 23:30:06 10° NW 23:36:04 61° WSW 23:38:24 36° S
ALOS 2 4.5 23:35:27 17° WSW 23:36:10 17° W 23:39:04 10° NW
SL-16 R/B 3.8 23:31:43 10° SE 23:37:20 37° ENE 23:43:00 10° N
Cosmos 1110 Rocket 4.0 23:32:32 10° NNW 23:37:51 83° ENE 23:40:15 34° SSE
Cosmos 1603 3.8 23:36:25 39° S 23:38:32 68° ESE 23:44:13 10° NNE
Cosmos 1666 Rocket 4.5 23:44:14 30° SE 23:45:41 39° E 23:49:48 10° NNE
Cosmos 1500 Rocket 4.0 23:44:49 39° SW 23:46:02 51° WNW 23:50:20 10° N
Resurs 1-4 Rocket 3.6 23:41:35 10° NE 23:46:04 27° E 23:48:45 18° SE
Cosmos 2369 Rocket 2.1 23:40:57 10° NNW 23:46:32 70° WSW 23:48:49 36° S
SeaSat 1 3.4 23:45:14 10° NE 23:49:47 36° ESE 23:51:20 29° SSE
ISS -2.3 23:51:00 26° ESE 23:51:00 26° ESE 23:53:01 10° ENE
Helios 1B rocket 2.5 23:50:13 10° N 23:54:20 66° WNW 23:55:23 45° SW
ADEOS II 4.4 23:54:36 10° ENE 23:57:09 13° E 23:59:40 10° ESE
